Wautoma, WI

1:07 PM CDT on June 28, 2017 (GMT -0500)
Wautoma

Weather History for KY50 - February, 2014

Change the Weather History Date:

Monday, February 24, 2014

  Actual Average (KPCZ) Record (KPCZ)
Temperature  
Mean Temperature 12 °F -  
Max Temperature 19 °F 34 °F 51 °F (1984)
Min Temperature 4 °F 16 °F -13 °F (1967)
Degree Days  
Heating Degree Days 54    
Moisture  
Dew Point 0 °F    
Average Humidity 62    
Maximum Humidity 73    
Minimum Humidity 50    
Precipitation  
Precipitation 0.00 in - - ()
Sea Level Pressure  
Sea Level Pressure 30.23 in    
Wind  
Wind Speed 12 mph (WNW)    
Max Wind Speed 18 mph    
Max Gust Speed 25 mph    
Visibility 10 miles    
Events      
Averages and records for this station are not official NWS values.
T = Trace of Precipitation, MM = Missing Value Source: NWS Daily Summary

Daily Weather History Graph

Daily Weather History Graph

Search for Another Location

Airport or City:

Trip Planner

Search our weather history database for the weather conditions in past years. The results will help you decide how hot, cold, wet, or windy it might be!

Date:

Astronomy

Feb. 24, 2014 Rise Set
Actual Time 6:42 AM CST 5:39 PM CST
Civil Twilight 6:13 AM CST 6:08 PM CST
Nautical Twilight 5:39 AM CST 6:41 PM CST
Astronomical Twilight 5:06 AM CST 7:15 PM CST
Moon 2:47 AM CST (2/24) 12:33 PM CST (2/24)
Length of Visible Light 11h 54m
Length of Day
10h 56m
Waning Crescent, 28% of the Moon is Illuminated
Feb 24
Waning Crescent
Mar 1
New
Mar 8
First Quarter
Mar 16
Full
Mar 23
Last Quarter

Hourly Weather History & Observations

Time (CST) Temp. Windchill Dew Point Humidity Pressure Visibility Wind Dir Wind Speed Gust Speed Precip Events Conditions
12:56 AM 9.1 °F -6.4 °F 1.0 °F 70% 30.18 in 10.0 mi West 12.7 mph - N/A   Clear
1:56 AM 8.1 °F -7.7 °F 0.1 °F 70% 30.18 in 10.0 mi West 12.7 mph - N/A   Clear
2:56 AM 7.2 °F -9.6 °F 0.1 °F 73% 30.18 in 10.0 mi West 13.8 mph - N/A   Clear
3:56 AM 7.2 °F -8.1 °F -0.9 °F 69% 30.20 in 10.0 mi West 11.5 mph - N/A   Clear
4:56 AM 6.1 °F -8.7 °F -1.8 °F 70% 30.20 in 10.0 mi WNW 10.4 mph - N/A   Clear
5:56 AM 5.0 °F -10.8 °F -1.8 °F 73% 30.22 in 10.0 mi West 11.5 mph - N/A   Clear
6:56 AM 4.1 °F -13.4 °F -2.9 °F 73% 30.22 in 10.0 mi West 13.8 mph - N/A   Clear
7:56 AM 6.1 °F -12.8 °F -1.8 °F 70% 30.24 in 10.0 mi WNW 17.3 mph - N/A   Clear
8:56 AM 8.1 °F -9.0 °F -1.8 °F 64% 30.25 in 10.0 mi WNW 15.0 mph 24.2 mph N/A   Clear
9:56 AM 10.0 °F -6.5 °F -0.9 °F 61% 30.26 in 10.0 mi WNW 15.0 mph - N/A   Clear
10:56 AM 13.1 °F -2.6 °F -0.9 °F 54% 30.25 in 10.0 mi NW 15.0 mph 19.6 mph N/A   Clear
11:56 AM 15.1 °F 1.8 °F 1.0 °F 54% 30.24 in 10.0 mi WNW 11.5 mph - N/A   Clear
12:56 PM 17.1 °F 3.6 °F 2.1 °F 52% 30.23 in 10.0 mi WNW 12.7 mph - N/A   Clear
1:56 PM 19.0 °F 3.6 °F 3.0 °F 50% 30.22 in 10.0 mi WNW 18.4 mph 25.3 mph N/A   Clear
2:56 PM 19.0 °F 5.0 °F 3.0 °F 50% 30.22 in 10.0 mi WNW 15.0 mph 21.9 mph N/A   Clear
3:56 PM 18.1 °F 5.0 °F 3.0 °F 52% 30.22 in 10.0 mi WNW 12.7 mph - N/A   Clear
4:56 PM 18.1 °F 3.9 °F 3.0 °F 52% 30.23 in 10.0 mi West 15.0 mph - N/A   Clear
5:56 PM 16.2 °F 6.5 °F 2.1 °F 54% 30.24 in 10.0 mi NNW 6.9 mph - N/A   Clear
6:56 PM 14.0 °F 5.1 °F 1.0 °F 56% 30.25 in 10.0 mi NNW 5.8 mph - N/A   Clear
7:56 PM 12.0 °F 1.5 °F 1.0 °F 61% 30.25 in 10.0 mi NNW 6.9 mph - N/A   Clear
8:56 PM 10.0 °F -0.9 °F 0.1 °F 64% 30.26 in 10.0 mi WNW 6.9 mph - N/A   Clear
9:56 PM 10.0 °F -0.9 °F 0.1 °F 64% 30.27 in 10.0 mi WNW 6.9 mph - N/A   Clear
10:56 PM 10.0 °F -2.9 °F 0.1 °F 64% 30.27 in 10.0 mi WNW 9.2 mph - N/A   Clear
11:56 PM 10.0 °F -1.9 °F 0.1 °F 64% 30.26 in 10.0 mi WNW 8.1 mph - N/A   Overcast